Regional Weather Roundup
Issued by NWS

Home | Current Version | Previous Version | Text Only | Print | Product List | Glossary Off
Versions: 1 2 3 4 5 6 7 8 9 10 11 12 13 14 15 16 17 18 19 20 21 22 23 24 25 26 27 28 29 30 31 32 33 34 35 36 37 38 39 40 41 42 43 44 45 46 47 48 49 50

000
ASUS45 KPSR 220710
RWRAZ

ARIZONA HOURLY REGIONAL WEATHER ROUNDUP
NATIONAL WEATHER SERVICE PHOENIX AZ
1200 AM MST SUN JAN 22 2017

NOTE: FAIR INDICATES FEW OR NO CLOUDS BELOW 12,000 FEET WITH NO
SIGNIFICANT WEATHER AND/OR OBSTRUCTIONS TO VISIBILITY.

AZZ001>003-036-220800-
NORTHWEST ARIZONA

CITY           SKY/WX    TMP DP  RH WIND       PRES   REMARKS
BULLHEAD CITY  CLOUDY    52  37  58 CALM      30.06S
KINGMAN        MOCLDY    36  21  54 SE6       30.05S WCI  31
$$

AZZ004>008-015-016-018-220800-
NORTH CENTRAL ARIZONA

CITY           SKY/WX    TMP DP  RH WIND       PRES   REMARKS
GRAND CANYON   PTCLDY     9   6  88 E7        30.04S WCI  -2
WILLIAMS       PTCLDY    14  10  85 CALM      30.04S
PRESCOTT       CLEAR     29  26  89 S6        30.07S WCI  23
FLAGSTAFF      CLOUDY    20  19  96 CALM      30.05R
PAYSON         CLEAR     32  30  93 E5        30.12S WCI  27
PAGE           CLEAR     37  24  59 NW6       30.01R WCI  32
$$

AZZ009>014-017-220800-
NORTHEAST ARIZONA

CITY           SKY/WX    TMP DP  RH WIND       PRES   REMARKS
WINSLOW        CLEAR     31  25  78 W9        30.06R WCI  23
SAINT JOHNS    CLEAR     29  24  82 SW10      30.04R WCI  20
SHOW LOW       CLEAR     23  19  86 S12       30.08R WCI  12
$$

AZZ023-220800-
GREATER PHOENIX AREA

CITY           SKY/WX    TMP DP  RH WIND       PRES   REMARKS
PHOENIX        CLEAR     47  38  71 E6        30.09R
BUCKEYE        CLEAR     43  39  87 E6        30.11R
LUKE AFB       CLEAR     43  41  92 NW5       30.10R
DEER VALLEY    CLEAR     45  36  70 E7        30.09R
SCOTTSDALE     CLEAR     43  37  79 CALM      30.11R
MESA-GATEWAY   PTCLDY    45  37  76 E9        30.12R
$$

AZZ027-028-220800-
SOUTHWEST MARICOPA COUNTY AND PINAL COUNTY

CITY           SKY/WX    TMP DP  RH WIND       PRES   REMARKS
CASA GRANDE    CLEAR     41  37  86 E5        30.13R
GILA BEND      FAIR      46  40  79 SE12      30.11R
$$

AZZ503-504-507>509-220800-
SOUTHEAST ARIZONA

CITY           SKY/WX    TMP DP  RH WIND       PRES   REMARKS
TUCSON         PTCLDY    41  34  76 SE5       30.16R
DAVIS-MONTHAN  PTCLDY    40  34  80 S7        30.15R WCI  35
NOGALES        CLEAR     33  28  81 E5        30.15R WCI  29
SIERRA VISTA   CLEAR     31  27  84 W3        30.16R
DOUGLAS        CLEAR     34  27  75 CALM      30.16R
SAFFORD        CLEAR     40  33  76 N9        30.10R WCI  34
$$

AZZ020-021-025-026-031-220800-
SOUTHWEST ARIZONA

CITY           SKY/WX    TMP DP  RH WIND       PRES   REMARKS
YUMA           CLEAR     49  41  74 SW3       30.10R
$$

CAZ031-033-041-043-047-048-061-220800-
SOUTHERN CALIFORNIA

CITY           SKY/WX    TMP DP  RH WIND       PRES   REMARKS
DOWNTOWN L.A.  CLOUDY    56  48  74 SE3       30.11R
L.A. AIRPORT   MOCLDY    55  48  77 SE7       30.12R
SAN DIEGO      PTCLDY    54  43  66 E8        30.15S
BURBANK        PTCLDY    52  46  80 SE8       30.10R
ONTARIO        CLOUDY    50  46  86 SW3       30.11R
RIVERSIDE      CLOUDY    49  46  90 E3        30.11S
PALM SPRINGS   MOCLDY    54  41  61 NW5       30.09R
EL CENTRO NAS  CLEAR     49  39  68 NW10      30.10R
IMPERIAL       CLEAR     51  39  63 W9        30.06F
BLYTHE         CLOUDY    51  44  77 CALM      30.08R
NEEDLES        CLOUDY    51  38  60 S6        30.05S
$$

NVZ020-UTZ003-220800-
SOUTHERN NEVADA-UTAH

CITY           SKY/WX    TMP DP  RH WIND       PRES   REMARKS
LAS VEGAS      CLOUDY    48  32  53 S6        30.01R
SALT LAKE CITY MOCLDY    31  27  85 SE9       29.95R WCI  23
$$

NMZ009-TXZ055-220800-
NEW MEXICO-WEST TEXAS

CITY           SKY/WX    TMP DP  RH WIND       PRES   REMARKS
ALBUQUERQUE    CLOUDY    39  21  48 NW7G16    29.91R WCI  34
EL PASO        CLEAR     42  23  46 W31G44    29.97R
$$


........................KEY........................
SKY/WX - SKY CONDITION/WEATHER
TMP    - TEMPERATURE IN FAHRENHEIT
DP     - DEW POINT IN FAHRENHEIT
RH     - RELATIVE HUMIDITY IN PERCENT
WIND   - DIRECTION AND SPEED IN MILES PER HOUR (MPH)
VRB    - VARIABLE WIND DIRECTION
PRES   - MEAN SEA LEVEL PRESSURE IN INCHES OF MERCURY
         F - FALLING PRESSURE   R - RISING PRESSURE
         S - STEADY PRESSURE
VSB    - VISIBILITY IN MILES
HX     - HEAT INDEX IN FAHRENHEIT
WCI    - WIND CHILL INDEX IN FAHRENHEIT
TC     - TEMPERATURE IN CELSIUS WHICH IS ALSO KNOWN AS
         TEMPERATURE IN CENTIGRADE
AFB    - AIR FORCE BASE
         LUKE AFB IS LUKE AIR FORCE BASE
         DAVIS-MONTHAN IS DAVIS-MONTHAN AIR FORCE BASE
NAS    - NAVAL AIR STATION
         EL CENTRO NAS IS EL CENTRO NAVAL AIR STATION
N/A    - NOT AVAILABLE




USA.gov is the U.S. government's official web portal to all federal, state and local government web resources and services.